QPF
0.00 0.00 0.00 0.00 0.00 0.00 0.00 0.00 0.00 0.00 0.00 0.00 0.00 0.00 0.00 0.00 0.01 0.01 0.01 0.01 0.01 0.01 0.01 0.01 0.02 0.02 0.02 0.01 0.02 0.02 0.02 0.01 0.01 0.01 0.01 0.01 0.01 0.02 0.02 0.02 0.04 0.04 0.04 0.04 0.03 0.04 0.04 0.02 0.02
0.00 0.00 0.00 0.00 0.00 0.00 0.01 0.00 0.00 0.00 0.00 0.00 0.00 0.00 0.00 0.00 0.00 0.00 0.00 0.01 0.00 0.00 0.00 0.01 0.01 0.01 0.01 0.01 0.02 0.02 0.02 0.01 0.01 0.01 0.01 0.01 0.02 0.02 0.02 0.02 0.03 0.03 0.03 0.02 0.03 0.03 0.03 0.02 0.01
0.00 0.00 0.00 0.00 0.00 0.00 0.00 0.00 0.00 0.00 0.00 0.00 0.00 0.00 0.00 0.00 0.00 0.00 0.00 0.00 0.00 0.00 0.00 0.01 0.01 0.01 0.01 0.01 0.01 0.02 0.03 0.02 0.01 0.01 0.01 0.02 0.02 0.02 0.02 0.02 0.02 0.03 0.03 0.03 0.03 0.02 0.02 0.02 0.02
0.00 0.00 0.00 0.00 0.00 0.00 0.00 0.00 0.00 0.00 0.00 0.00 0.00 0.00 0.00 0.00 0.00 0.00 0.00 0.00 0.00 0.00 0.00 0.00 0.01 0.01 0.01 0.01 0.01 0.01 0.02 0.02 0.01 0.01 0.02 0.03 0.02 0.02 0.02 0.02 0.03 0.04 0.04 0.03 0.02 0.02 0.03 0.04 0.03
0.00 0.00 0.00 0.00 0.00 0.00 0.00 0.00 0.00 0.00 0.00 0.00 0.00 0.00 0.00 0.01 0.00 0.00 0.00 0.00 0.00 0.00 0.00 0.00 0.01 0.01 0.01 0.01 0.01 0.01 0.01 0.01 0.02 0.03 0.03 0.03 0.03 0.03 0.03 0.02 0.02 0.03 0.04 0.03 0.02 0.02 0.03 0.05 0.05
0.00 0.00 0.00 0.00 0.00 0.00 0.00 0.00 0.00 0.00 0.00 0.00 0.00 0.00 0.01 0.01 0.00 0.00 0.00 0.00 0.00 0.00 0.00 0.00 0.01 0.01 0.04 0.02 0.02 0.02 0.02 0.01 0.01 0.02 0.03 0.03 0.04 0.03 0.03 0.03 0.02 0.02 0.04 0.03 0.02 0.03 0.04 0.05 0.05
0.00 0.00 0.00 0.00 0.00 0.00 0.00 0.00 0.00 0.00 0.00 0.00 0.00 0.00 0.01 0.00 0.00 0.00 0.00 0.00 0.00 0.00 0.00 0.01 0.01 0.01 0.03 0.04 0.03 0.04 0.03 0.02 0.02 0.02 0.03 0.03 0.03 0.03 0.03 0.03 0.03 0.02 0.03 0.04 0.02 0.02 0.02 0.03 0.02
0.00 0.00 0.00 0.00 0.00 0.00 0.00 0.00 0.00 0.00 0.00 0.00 0.00 0.00 0.00 0.00 0.00 0.00 0.00 0.00 0.00 0.00 0.00 0.01 0.01 0.02 0.02 0.03 0.05 0.05 0.03 0.02 0.02 0.02 0.03 0.03 0.03 0.03 0.04 0.03 0.03 0.03 0.03 0.03 0.02 0.02 0.02 0.02 0.03
0.00 0.00 0.00 0.00 0.00 0.00 0.00 0.00 0.00 0.00 0.00 0.00 0.00 0.00 0.00 0.00 0.00 0.00 0.00 0.00 0.00 0.00 0.01 0.01 0.01 0.01 0.01 0.02 0.03 0.04 0.03 0.02 0.03 0.04 0.03 0.03 0.04 0.04 0.04 0.03 0.02 0.03 0.03 0.02 0.02 0.02 0.02 0.02 0.04
0.00 0.00 0.00 0.00 0.00 0.00 0.00 0.00 0.00 0.00 0.00 0.00 0.00 0.00 0.00 0.00 0.00 0.00 0.00 0.00 0.00 0.00 0.01 0.01 0.01 0.01 0.01 0.02 0.03 0.05 0.03 0.03 0.04 0.04 0.02 0.03 0.03 0.03 0.02 0.02 0.03 0.03 0.03 0.02 0.02 0.02 0.02 0.02 0.03
0.00 0.00 0.00 0.00 0.00 0.00 0.00 0.00 0.00 0.00 0.00 0.00 0.00 0.00 0.00 0.00 0.00 0.00 0.00 0.00 0.00 0.00 0.00 0.00 0.01 0.01 0.02 0.03 0.03 0.03 0.03 0.02 0.02 0.02 0.01 0.01 0.00 0.01 0.01 0.02 0.03 0.04 0.02 0.02 0.01 0.01 0.02 0.02 0.03
0.00 0.00 0.00 0.00 0.00 0.00 0.00 0.00 0.00 0.00 0.00 0.00 0.00 0.00 0.00 0.00 0.00 0.00 0.00 0.00 0.00 0.00 0.00 0.00 0.00 0.01 0.01 0.02 0.03 0.02 0.01 0.01 0.01 0.01 0.01 0.00 0.00 0.01 0.01 0.02 0.02 0.03 0.03 0.03 0.01 0.01 0.01 0.01 0.01
0.00 0.00 0.00 0.00 0.00 0.00 0.00 0.00 0.00 0.00 0.00 0.00 0.00 0.00 0.00 0.00 0.00 0.00 0.00 0.00 0.00 0.01 0.01 0.00 0.00 0.00 0.01 0.02 0.04 0.02 0.01 0.01 0.00 0.01 0.01 0.00 0.01 0.02 0.02 0.02 0.03 0.02 0.01 0.02 0.02 0.02 0.01 0.02 0.02
0.00 0.00 0.00 0.00 0.00 0.00 0.00 0.00 0.00 0.00 0.00 0.00 0.00 0.00 0.00 0.00 0.00 0.00 0.00 0.00 0.01 0.01 0.01 0.01 0.01 0.01 0.01 0.02 0.02 0.02 0.01 0.01 0.00 0.01 0.00 0.01 0.02 0.04 0.04 0.04 0.04 0.03 0.03 0.02 0.02 0.02 0.02 0.03 0.04
0.00 0.00 0.00 0.00 0.00 0.00 0.00 0.00 0.00 0.00 0.00 0.00 0.00 0.00 0.00 0.00 0.00 0.00 0.01 0.01 0.02 0.02 0.02 0.01 0.01 0.02 0.02 0.01 0.02 0.01 0.01 0.01 0.00 0.01 0.01 0.01 0.02 0.03 0.04 0.05 0.05 0.04 0.03 0.04 0.04 0.04 0.04 0.04 0.04
0.00 0.00 0.00 0.00 0.00 0.00 0.00 0.00 0.00 0.00 0.00 0.00 0.00 0.00 0.00 0.00 0.00 0.01 0.04 0.05 0.06 0.04 0.05 0.04 0.02 0.02 0.02 0.02 0.02 0.01 0.01 0.01 0.01 0.01 0.02 0.03 0.04 0.05 0.05 0.05 0.05 0.05 0.03 0.05 0.07 0.07 0.06 0.08 0.07
0.00 0.00 0.00 0.00 0.00 0.00 0.00 0.00 0.00 0.00 0.00 0.00 0.00 0.00 0.00 0.00 0.00 0.01 0.02 0.05 0.07 0.08 0.08 0.06 0.04 0.03 0.04 0.03 0.02 0.02 0.02 0.02 0.02 0.03 0.03 0.05 0.06 0.05 0.05 0.06 0.05 0.04 0.03 0.04 0.05 0.08 0.09 0.10 0.10
0.00 0.00 0.00 0.00 0.00 0.00 0.00 0.00 0.00 0.00 0.00 0.00 0.00 0.00 0.00 0.00 0.01 0.00 0.01 0.02 0.03 0.05 0.06 0.06 0.06 0.07 0.05 0.02 0.02 0.03 0.03 0.03 0.03 0.04 0.06 0.05 0.05 0.05 0.06 0.05 0.04 0.04 0.04 0.06 0.08 0.10 0.10 0.11 0.12
0.00 0.00 0.00 0.00 0.00 0.00 0.00 0.00 0.00 0.00 0.00 0.00 0.00 0.00 0.00 0.00 0.01 0.00 0.01 0.01 0.02 0.03 0.03 0.05 0.06 0.11 0.07 0.03 0.04 0.05 0.05 0.06 0.05 0.05 0.05 0.05 0.06 0.06 0.08 0.05 0.07 0.08 0.06 0.07 0.07 0.10 0.12 0.13 0.10
0.00 0.00 0.00 0.00 0.00 0.00 0.00 0.00 0.00 0.00 0.00 0.00 0.00 0.00 0.00 0.00 0.00 0.00 0.01 0.01 0.01 0.02 0.02 0.03 0.03 0.05 0.05 0.04 0.05 0.05 0.06 0.06 0.07 0.08 0.06 0.06 0.08 0.08 0.07 0.07 0.10 0.10 0.09 0.08 0.07 0.09 0.11 0.10 0.10
0.00 0.00 0.00 0.00 0.00 0.00 0.00 0.00 0.00 0.00 0.00 0.00 0.00 0.00 0.00 0.00 0.01 0.00 0.01 0.01 0.02 0.03 0.04 0.04 0.04 0.04 0.04 0.05 0.05 0.06 0.07 0.06 0.08 0.07 0.07 0.06 0.06 0.07 0.06 0.07 0.09 0.13 0.11 0.10 0.09 0.09 0.10 0.10 0.11
0.00 0.00 0.00 0.00 0.00 0.00 0.00 0.00 0.00 0.00 0.00 0.00 0.00 0.00 0.00 0.00 0.01 0.00 0.01 0.02 0.04 0.03 0.03 0.04 0.05 0.06 0.06 0.07 0.07 0.09 0.10 0.07 0.07 0.07 0.08 0.08 0.06 0.06 0.05 0.06 0.08 0.10 0.09 0.10 0.07 0.08 0.09 0.11 0.11
0.00 0.00 0.00 0.00 0.00 0.00 0.00 0.00 0.00 0.00 0.00 0.00 0.00 0.00 0.00 0.00 0.00 0.01 0.01 0.03 0.04 0.03 0.03 0.04 0.07 0.08 0.08 0.08 0.09 0.11 0.12 0.09 0.08 0.08 0.08 0.09 0.08 0.05 0.04 0.05 0.07 0.09 0.09 0.08 0.07 0.07 0.08 0.09 0.10
0.00 0.00 0.00 0.00 0.00 0.00 0.00 0.00 0.00 0.00 0.00 0.00 0.00 0.00 0.00 0.00 0.01 0.01 0.02 0.04 0.02 0.02 0.02 0.04 0.05 0.06 0.06 0.07 0.07 0.07 0.10 0.10 0.09 0.08 0.09 0.09 0.08 0.06 0.06 0.05 0.06 0.07 0.07 0.06 0.07 0.08 0.08 0.08 0.09
0.00 0.00 0.00 0.00 0.00 0.00 0.00 0.00 0.00 0.00 0.00 0.00 0.00 0.00 0.00 0.00 0.00 0.00 0.01 0.03 0.02 0.01 0.02 0.02 0.04 0.05 0.04 0.06 0.07 0.07 0.08 0.07 0.07 0.09 0.09 0.09 0.09 0.09 0.08 0.06 0.06 0.06 0.06 0.06 0.08 0.08 0.08 0.08 0.09
0.00 0.00 0.00 0.00 0.00 0.00 0.00 0.00 0.00 0.00 0.00 0.00 0.00 0.00 0.00 0.00 0.00 0.00 0.01 0.03 0.03 0.02 0.01 0.02 0.03 0.03 0.03 0.04 0.04 0.04 0.05 0.05 0.06 0.06 0.06 0.08 0.10 0.11 0.09 0.07 0.06 0.06 0.07 0.06 0.07 0.07 0.07 0.07 0.09
0.00 0.00 0.00 0.00 0.00 0.00 0.00 0.00 0.00 0.00 0.00 0.00 0.00 0.00 0.00 0.00 0.00 0.00 0.01 0.03 0.03 0.02 0.02 0.03 0.02 0.02 0.03 0.03 0.05 0.05 0.06 0.05 0.06 0.05 0.04 0.05 0.07 0.08 0.07 0.05 0.05 0.06 0.08 0.08 0.10 0.09 0.09 0.09 0.09
0.00 0.00 0.00 0.00 0.00 0.00 0.00 0.00 0.00 0.00 0.00 0.00 0.00 0.00 0.00 0.00 0.00 0.00 0.01 0.01 0.02 0.02 0.02 0.04 0.02 0.02 0.02 0.03 0.04 0.04 0.06 0.05 0.06 0.05 0.05 0.05 0.06 0.06 0.05 0.04 0.05 0.07 0.11 0.12 0.12 0.09 0.08 0.08 0.08
0.00 0.00 0.00 0.00 0.00 0.00 0.00 0.00 0.00 0.00 0.00 0.00 0.00 0.00 0.00 0.00 0.00 0.00 0.00 0.00 0.01 0.01 0.01 0.04 0.04 0.03 0.03 0.04 0.04 0.03 0.06 0.06 0.05 0.05 0.06 0.06 0.06 0.06 0.05 0.05 0.06 0.07 0.10 0.11 0.11 0.08 0.08 0.08 0.08
0.00 0.00 0.00 0.00 0.00 0.00 0.00 0.00 0.00 0.00 0.00 0.00 0.00 0.00 0.00 0.00 0.00 0.00 0.00 0.00 0.00 0.01 0.01 0.03 0.04 0.02 0.02 0.03 0.04 0.05 0.08 0.07 0.05 0.05 0.04 0.04 0.04 0.05 0.04 0.05 0.04 0.05 0.06 0.07 0.08 0.09 0.10 0.08 0.07
MSLP
1009.29 1009.71 1010.26 1010.83 1011.36 1011.77 1012.04 1012.16 1012.19 1012.18 1012.18 1012.23 1012.32 1012.44 1012.56 1012.63 1012.64 1012.60 1012.55 1012.54 1012.62 1012.85 1013.21 1013.70 1014.24 1014.75 1015.16 1015.41 1015.51 1015.46 1015.34 1015.20 1015.13 1015.16 1015.31 1015.53 1015.79 1016.04 1016.23 1016.34 1016.37 1016.37 1016.37 1016.40 1016.50 1016.65 1016.84 1017.01 1017.14
1009.31 1009.82 1010.43 1011.06 1011.60 1012.00 1012.22 1012.29 1012.24 1012.15 1012.07 1012.05 1012.09 1012.17 1012.26 1012.33 1012.34 1012.32 1012.29 1012.32 1012.46 1012.74 1013.17 1013.71 1014.31 1014.87 1015.32 1015.61 1015.73 1015.71 1015.59 1015.47 1015.41 1015.44 1015.59 1015.81 1016.06 1016.30 1016.48 1016.57 1016.61 1016.61 1016.63 1016.69 1016.81 1016.99 1017.19 1017.36 1017.47
1009.38 1009.96 1010.61 1011.24 1011.77 1012.13 1012.30 1012.31 1012.21 1012.07 1011.95 1011.90 1011.93 1012.00 1012.09 1012.16 1012.18 1012.17 1012.16 1012.20 1012.36 1012.66 1013.12 1013.70 1014.34 1014.94 1015.43 1015.77 1015.93 1015.95 1015.87 1015.78 1015.74 1015.78 1015.92 1016.13 1016.36 1016.57 1016.73 1016.81 1016.84 1016.85 1016.88 1016.97 1017.12 1017.31 1017.51 1017.68 1017.76
1009.54 1010.14 1010.79 1011.39 1011.86 1012.16 1012.28 1012.24 1012.11 1011.95 1011.84 1011.81 1011.85 1011.96 1012.07 1012.15 1012.19 1012.18 1012.16 1012.20 1012.36 1012.65 1013.11 1013.70 1014.34 1014.97 1015.50 1015.88 1016.09 1016.16 1016.14 1016.09 1016.08 1016.14 1016.27 1016.46 1016.67 1016.86 1016.99 1017.06 1017.09 1017.11 1017.17 1017.28 1017.45 1017.65 1017.85 1017.99 1018.05
1009.79 1010.37 1010.96 1011.49 1011.89 1012.11 1012.17 1012.09 1011.95 1011.82 1011.75 1011.77 1011.88 1012.03 1012.19 1012.31 1012.36 1012.35 1012.32 1012.34 1012.46 1012.73 1013.15 1013.71 1014.35 1014.98 1015.52 1015.94 1016.20 1016.33 1016.36 1016.36 1016.38 1016.46 1016.60 1016.78 1016.97 1017.13 1017.25 1017.32 1017.36 1017.41 1017.49 1017.63 1017.81 1018.02 1018.21 1018.33 1018.35
1010.11 1010.63 1011.14 1011.57 1011.86 1011.99 1011.99 1011.88 1011.76 1011.67 1011.67 1011.78 1011.97 1012.20 1012.42 1012.58 1012.66 1012.65 1012.61 1012.59 1012.67 1012.89 1013.26 1013.77 1014.37 1014.98 1015.52 1015.95 1016.25 1016.42 1016.50 1016.54 1016.60 1016.70 1016.84 1017.02 1017.21 1017.37 1017.49 1017.58 1017.64 1017.72 1017.83 1017.99 1018.19 1018.40 1018.57 1018.66 1018.66
1010.47 1010.90 1011.30 1011.60 1011.77 1011.81 1011.75 1011.63 1011.53 1011.51 1011.59 1011.80 1012.09 1012.41 1012.70 1012.91 1013.01 1013.01 1012.96 1012.92 1012.95 1013.11 1013.42 1013.87 1014.42 1014.98 1015.51 1015.93 1016.24 1016.43 1016.55 1016.62 1016.71 1016.83 1016.99 1017.18 1017.37 1017.54 1017.68 1017.79 1017.89 1018.00 1018.15 1018.33 1018.53 1018.73 1018.88 1018.95 1018.92
1010.82 1011.15 1011.42 1011.59 1011.64 1011.59 1011.48 1011.35 1011.28 1011.32 1011.50 1011.79 1012.18 1012.59 1012.95 1013.21 1013.35 1013.37 1013.32 1013.25 1013.25 1013.37 1013.63 1014.02 1014.50 1015.01 1015.49 1015.90 1016.19 1016.39 1016.52 1016.62 1016.72 1016.86 1017.04 1017.24 1017.44 1017.64 1017.80 1017.94 1018.07 1018.21 1018.38 1018.57 1018.77 1018.95 1019.08 1019.13 1019.08
1011.12 1011.35 1011.50 1011.54 1011.49 1011.35 1011.19 1011.06 1011.02 1011.11 1011.36 1011.74 1012.20 1012.68 1013.10 1013.42 1013.59 1013.64 1013.61 1013.55 1013.54 1013.63 1013.85 1014.19 1014.62 1015.08 1015.51 1015.87 1016.15 1016.33 1016.46 1016.56 1016.67 1016.82 1017.01 1017.22 1017.45 1017.66 1017.85 1018.02 1018.17 1018.33 1018.50 1018.69 1018.87 1019.03 1019.14 1019.16 1019.10
1011.36 1011.49 1011.53 1011.47 1011.31 1011.11 1010.91 1010.77 1010.75 1010.88 1011.18 1011.61 1012.12 1012.64 1013.12 1013.47 1013.70 1013.79 1013.79 1013.76 1013.77 1013.86 1014.07 1014.38 1014.77 1015.18 1015.57 1015.89 1016.13 1016.29 1016.40 1016.49 1016.61 1016.76 1016.95 1017.18 1017.41 1017.64 1017.84 1018.02 1018.19 1018.34 1018.51 1018.67 1018.83 1018.97 1019.04 1019.05 1018.99
1011.53 1011.58 1011.53 1011.38 1011.16 1010.90 1010.67 1010.51 1010.49 1010.64 1010.95 1011.40 1011.93 1012.48 1012.98 1013.37 1013.64 1013.78 1013.84 1013.88 1013.93 1014.06 1014.28 1014.58 1014.95 1015.33 1015.67 1015.95 1016.15 1016.29 1016.38 1016.46 1016.56 1016.71 1016.91 1017.14 1017.38 1017.61 1017.82 1017.99 1018.15 1018.29 1018.42 1018.56 1018.69 1018.79 1018.85 1018.84 1018.79
1011.66 1011.65 1011.53 1011.32 1011.04 1010.74 1010.48 1010.31 1010.27 1010.40 1010.70 1011.13 1011.65 1012.20 1012.71 1013.13 1013.45 1013.65 1013.79 1013.90 1014.02 1014.21 1014.46 1014.78 1015.14 1015.49 1015.81 1016.05 1016.23 1016.33 1016.40 1016.47 1016.57 1016.72 1016.91 1017.13 1017.37 1017.59 1017.79 1017.95 1018.09 1018.20 1018.30 1018.40 1018.50 1018.57 1018.62 1018.61 1018.57
1011.79 1011.74 1011.57 1011.32 1011.00 1010.67 1010.38 1010.18 1010.11 1010.20 1010.46 1010.84 1011.33 1011.85 1012.35 1012.80 1013.16 1013.44 1013.66 1013.86 1014.07 1014.31 1014.61 1014.96 1015.32 1015.66 1015.95 1016.17 1016.32 1016.41 1016.47 1016.53 1016.62 1016.77 1016.95 1017.17 1017.40 1017.61 1017.80 1017.93 1018.04 1018.12 1018.19 1018.26 1018.33 1018.39 1018.43 1018.44 1018.42
1011.97 1011.89 1011.69 1011.41 1011.07 1010.71 1010.39 1010.15 1010.03 1010.07 1010.25 1010.57 1011.00 1011.49 1011.98 1012.45 1012.86 1013.21 1013.52 1013.80 1014.09 1014.40 1014.74 1015.10 1015.46 1015.79 1016.06 1016.27 1016.40 1016.48 1016.54 1016.60 1016.70 1016.84 1017.02 1017.24 1017.46 1017.66 1017.82 1017.94 1018.02 1018.08 1018.12 1018.17 1018.23 1018.30 1018.35 1018.39 1018.39
1012.22 1012.12 1011.91 1011.61 1011.25 1010.87 1010.51 1010.23 1010.05 1010.00 1010.11 1010.35 1010.72 1011.16 1011.65 1012.14 1012.60 1013.02 1013.40 1013.76 1014.12 1014.47 1014.84 1015.21 1015.56 1015.87 1016.12 1016.31 1016.43 1016.51 1016.57 1016.64 1016.75 1016.89 1017.08 1017.29 1017.50 1017.69 1017.85 1017.95 1018.02 1018.06 1018.11 1018.16 1018.22 1018.30 1018.39 1018.45 1018.49
1012.55 1012.43 1012.21 1011.90 1011.53 1011.13 1010.74 1010.40 1010.15 1010.02 1010.04 1010.20 1010.50 1010.91 1011.38 1011.89 1012.40 1012.89 1013.34 1013.77 1014.17 1014.55 1014.92 1015.27 1015.60 1015.88 1016.10 1016.27 1016.39 1016.47 1016.55 1016.63 1016.75 1016.90 1017.09 1017.30 1017.50 1017.68 1017.83 1017.93 1018.00 1018.06 1018.11 1018.18 1018.27 1018.38 1018.50 1018.61 1018.68
1012.92 1012.79 1012.57 1012.26 1011.89 1011.48 1011.05 1010.65 1010.32 1010.10 1010.03 1010.11 1010.34 1010.71 1011.18 1011.72 1012.27 1012.82 1013.33 1013.81 1014.23 1014.62 1014.98 1015.29 1015.58 1015.82 1016.01 1016.16 1016.28 1016.37 1016.46 1016.55 1016.68 1016.84 1017.02 1017.22 1017.42 1017.59 1017.74 1017.85 1017.93 1018.01 1018.09 1018.19 1018.32 1018.48 1018.63 1018.77 1018.88
1013.28 1013.16 1012.95 1012.66 1012.30 1011.88 1011.42 1010.96 1010.55 1010.23 1010.05 1010.05 1010.21 1010.55 1011.01 1011.57 1012.18 1012.78 1013.34 1013.85 1014.29 1014.67 1014.99 1015.26 1015.50 1015.69 1015.86 1015.99 1016.11 1016.21 1016.31 1016.43 1016.56 1016.71 1016.88 1017.06 1017.24 1017.40 1017.54 1017.66 1017.77 1017.88 1018.00 1018.14 1018.32 1018.51 1018.70 1018.88 1019.00
1013.57 1013.48 1013.31 1013.06 1012.72 1012.30 1011.82 1011.30 1010.80 1010.38 1010.09 1009.99 1010.08 1010.37 1010.83 1011.41 1012.06 1012.70 1013.31 1013.85 1014.29 1014.65 1014.94 1015.17 1015.36 1015.52 1015.66 1015.79 1015.91 1016.03 1016.15 1016.27 1016.39 1016.53 1016.67 1016.82 1016.97 1017.11 1017.24 1017.37 1017.50 1017.64 1017.80 1017.99 1018.20 1018.43 1018.65 1018.85 1018.98
1013.76 1013.72 1013.62 1013.43 1013.14 1012.74 1012.23 1011.65 1011.06 1010.52 1010.12 1009.91 1009.91 1010.15 1010.59 1011.17 1011.85 1012.53 1013.18 1013.74 1014.19 1014.54 1014.80 1015.00 1015.15 1015.29 1015.43 1015.57 1015.71 1015.84 1015.98 1016.10 1016.22 1016.32 1016.43 1016.53 1016.63 1016.73 1016.85 1016.97 1017.12 1017.29 1017.49 1017.71 1017.96 1018.21 1018.45 1018.65 1018.80
1013.83 1013.87 1013.86 1013.77 1013.54 1013.17 1012.64 1012.00 1011.31 1010.66 1010.12 1009.78 1009.69 1009.85 1010.24 1010.82 1011.51 1012.23 1012.90 1013.48 1013.95 1014.29 1014.54 1014.73 1014.88 1015.02 1015.17 1015.33 1015.50 1015.67 1015.82 1015.94 1016.04 1016.11 1016.15 1016.19 1016.23 1016.29 1016.37 1016.49 1016.64 1016.83 1017.05 1017.30 1017.57 1017.83 1018.08 1018.29 1018.43
1013.79 1013.95 1014.06 1014.08 1013.93 1013.60 1013.07 1012.37 1011.58 1010.79 1010.11 1009.63 1009.41 1009.48 1009.81 1010.36 1011.04 1011.77 1012.46 1013.06 1013.54 1013.90 1014.16 1014.35 1014.51 1014.68 1014.87 1015.07 1015.29 1015.49 1015.66 1015.79 1015.86 1015.88 1015.86 1015.83 1015.80 1015.80 1015.84 1015.94 1016.08 1016.28 1016.52 1016.78 1017.05 1017.32 1017.56 1017.77 1017.91
1013.69 1013.98 1014.23 1014.37 1014.32 1014.03 1013.49 1012.74 1011.85 1010.93 1010.11 1009.48 1009.12 1009.07 1009.32 1009.82 1010.47 1011.20 1011.90 1012.51 1013.01 1013.38 1013.66 1013.88 1014.07 1014.28 1014.52 1014.78 1015.04 1015.29 1015.49 1015.61 1015.66 1015.63 1015.55 1015.45 1015.35 1015.28 1015.28 1015.34 1015.47 1015.67 1015.90 1016.17 1016.44 1016.69 1016.93 1017.12 1017.27
1013.57 1013.99 1014.39 1014.65 1014.69 1014.44 1013.91 1013.11 1012.13 1011.09 1010.13 1009.35 1008.86 1008.70 1008.85 1009.27 1009.88 1010.58 1011.27 1011.88 1012.39 1012.78 1013.08 1013.33 1013.57 1013.83 1014.12 1014.44 1014.75 1015.04 1015.26 1015.39 1015.42 1015.35 1015.21 1015.04 1014.88 1014.76 1014.70 1014.73 1014.84 1015.01 1015.23 1015.48 1015.73 1015.97 1016.18 1016.37 1016.52
1013.45 1014.01 1014.52 1014.88 1015.00 1014.80 1014.27 1013.44 1012.39 1011.26 1010.18 1009.29 1008.67 1008.40 1008.45 1008.79 1009.34 1009.99 1010.66 1011.26 1011.76 1012.17 1012.49 1012.77 1013.04 1013.34 1013.68 1014.05 1014.42 1014.74 1014.98 1015.12 1015.13 1015.03 1014.85 1014.63 1014.41 1014.24 1014.14 1014.12 1014.19 1014.34 1014.53 1014.75 1014.96 1015.17 1015.36 1015.53 1015.68
1013.36 1014.00 1014.60 1015.04 1015.21 1015.05 1014.53 1013.68 1012.60 1011.41 1010.26 1009.28 1008.58 1008.21 1008.18 1008.44 1008.92 1009.52 1010.14 1010.71 1011.20 1011.60 1011.94 1012.23 1012.53 1012.87 1013.25 1013.65 1014.05 1014.41 1014.67 1014.81 1014.82 1014.71 1014.50 1014.25 1013.99 1013.77 1013.62 1013.56 1013.59 1013.69 1013.83 1013.99 1014.16 1014.32 1014.47 1014.61 1014.76
1013.25 1013.94 1014.58 1015.05 1015.25 1015.11 1014.61 1013.77 1012.70 1011.50 1010.33 1009.32 1008.57 1008.14 1008.05 1008.24 1008.65 1009.19 1009.76 1010.30 1010.76 1011.15 1011.48 1011.79 1012.10 1012.46 1012.86 1013.29 1013.71 1014.08 1014.36 1014.51 1014.53 1014.42 1014.20 1013.93 1013.65 1013.40 1013.21 1013.11 1013.08 1013.11 1013.18 1013.27 1013.37 1013.47 1013.56 1013.66 1013.78
1013.09 1013.77 1014.40 1014.86 1015.06 1014.93 1014.46 1013.66 1012.63 1011.47 1010.34 1009.35 1008.61 1008.16 1008.03 1008.18 1008.53 1009.01 1009.53 1010.03 1010.47 1010.84 1011.16 1011.47 1011.80 1012.16 1012.57 1013.01 1013.44 1013.82 1014.12 1014.29 1014.32 1014.22 1014.02 1013.75 1013.46 1013.19 1012.97 1012.81 1012.71 1012.67 1012.65 1012.65 1012.66 1012.67 1012.69 1012.74 1012.82
1012.84 1013.46 1014.03 1014.44 1014.61 1014.48 1014.04 1013.30 1012.35 1011.29 1010.24 1009.33 1008.63 1008.21 1008.08 1008.20 1008.51 1008.94 1009.42 1009.88 1010.30 1010.66 1010.99 1011.30 1011.64 1012.01 1012.43 1012.87 1013.30 1013.70 1014.00 1014.19 1014.25 1014.18 1014.00 1013.76 1013.48 1013.20 1012.95 1012.74 1012.57 1012.43 1012.31 1012.21 1012.11 1012.02 1011.95 1011.93 1011.95
1012.49 1013.00 1013.46 1013.79 1013.91 1013.78 1013.37 1012.72 1011.88 1010.94 1010.02 1009.21 1008.60 1008.23 1008.11 1008.22 1008.51 1008.91 1009.36 1009.81 1010.22 1010.60 1010.94 1011.27 1011.63 1012.02 1012.44 1012.89 1013.33 1013.72 1014.04 1014.26 1014.35 1014.32 1014.19 1013.98 1013.72 1013.45 1013.18 1012.92 1012.67 1012.44 1012.22 1012.00 1011.79 1011.60 1011.44 1011.34 1011.30
Thickness
5834 5840 5841 5837 5829 5817 5800 5806 5813 5809 5810 5816 5816 5811 5804 5797 5792 5779 5797 5804 5800 5795 5787 5780 5777 5775 5773 5772 5770 5769 5768 5766 5765 5764 5763 5762 5761 5760 5760 5759 5758 5757 5756 5755 5755 5754 5753 5752 5750
5843 5843 5839 5837 5824 5799 5794 5810 5809 5809 5814 5818 5815 5810 5803 5796 5799 5796 5799 5801 5799 5795 5788 5782 5775 5774 5772 5770 5769 5768 5766 5765 5763 5762 5761 5760 5760 5759 5758 5757 5757 5756 5755 5754 5753 5752 5751 5750 5748
5845 5844 5838 5835 5817 5804 5799 5811 5811 5816 5821 5818 5810 5810 5802 5793 5796 5798 5802 5801 5799 5793 5787 5779 5775 5772 5770 5769 5767 5766 5764 5763 5762 5761 5760 5759 5758 5757 5756 5756 5755 5754 5753 5752 5751 5750 5749 5748 5746
5845 5843 5841 5829 5810 5813 5815 5817 5819 5816 5817 5818 5813 5803 5801 5801 5803 5804 5803 5801 5796 5791 5787 5778 5774 5771 5769 5767 5766 5764 5763 5762 5761 5759 5759 5758 5757 5756 5755 5754 5753 5752 5751 5750 5749 5748 5747 5745 5744
5847 5842 5830 5817 5813 5818 5825 5826 5825 5818 5813 5815 5813 5799 5793 5800 5807 5805 5802 5799 5796 5793 5787 5778 5772 5770 5768 5766 5764 5763 5762 5760 5759 5758 5757 5756 5755 5754 5753 5753 5751 5750 5749 5748 5747 5746 5745 5744 5743
5842 5841 5823 5810 5810 5819 5826 5829 5827 5819 5814 5814 5811 5800 5791 5799 5802 5801 5801 5799 5797 5793 5788 5777 5771 5768 5766 5764 5763 5761 5760 5759 5758 5757 5756 5755 5754 5753 5752 5751 5750 5749 5748 5747 5745 5744 5743 5742 5741
5836 5834 5820 5817 5813 5816 5823 5831 5826 5820 5814 5814 5817 5801 5793 5797 5801 5802 5800 5798 5796 5793 5787 5779 5774 5768 5764 5762 5761 5760 5759 5758 5757 5756 5755 5754 5753 5752 5751 5750 5749 5748 5747 5745 5744 5743 5742 5741 5739
5843 5837 5822 5819 5815 5816 5828 5831 5830 5825 5817 5824 5822 5804 5794 5797 5802 5802 5798 5795 5793 5790 5787 5780 5777 5771 5768 5764 5760 5759 5758 5756 5756 5755 5754 5753 5752 5751 5750 5749 5748 5746 5745 5744 5743 5742 5741 5740 5739
5843 5830 5818 5820 5819 5821 5831 5828 5830 5834 5825 5821 5823 5819 5814 5806 5802 5797 5792 5790 5787 5785 5784 5782 5777 5773 5770 5768 5762 5759 5757 5756 5755 5754 5753 5754 5755 5754 5751 5749 5747 5746 5744 5743 5742 5741 5740 5739 5738
5838 5825 5821 5829 5833 5831 5831 5829 5829 5826 5818 5814 5813 5813 5811 5804 5798 5793 5789 5786 5783 5781 5781 5781 5778 5773 5771 5769 5764 5763 5762 5758 5758 5757 5756 5757 5755 5754 5753 5747 5746 5745 5744 5743 5741 5741 5740 5742 5743
5835 5826 5828 5833 5837 5837 5832 5831 5834 5825 5817 5819 5813 5807 5805 5802 5797 5794 5791 5789 5785 5782 5781 5780 5776 5771 5771 5768 5766 5765 5764 5760 5759 5757 5756 5756 5755 5755 5753 5751 5748 5746 5745 5746 5743 5743 5745 5745 5744
5829 5828 5830 5833 5837 5835 5833 5833 5831 5828 5827 5833 5827 5817 5808 5802 5799 5796 5793 5790 5787 5783 5781 5780 5776 5771 5769 5768 5767 5766 5765 5763 5762 5758 5757 5757 5757 5755 5754 5752 5751 5749 5748 5747 5747 5746 5745 5744 5743
5824 5826 5832 5836 5837 5836 5834 5831 5829 5828 5833 5833 5826 5816 5810 5806 5802 5800 5797 5792 5787 5782 5780 5779 5775 5771 5767 5765 5766 5766 5765 5765 5762 5759 5757 5756 5757 5755 5754 5751 5750 5751 5750 5748 5746 5746 5744 5743 5743
5826 5827 5830 5834 5834 5833 5828 5829 5827 5826 5832 5826 5820 5814 5811 5808 5804 5799 5794 5789 5786 5783 5781 5779 5774 5771 5767 5765 5764 5764 5765 5762 5763 5760 5758 5756 5756 5754 5753 5751 5749 5750 5750 5750 5748 5746 5745 5744 5744
5827 5820 5824 5829 5831 5832 5829 5818 5822 5829 5829 5820 5817 5814 5810 5807 5804 5798 5795 5790 5787 5783 5781 5777 5774 5771 5767 5766 5764 5765 5765 5764 5763 5760 5757 5755 5755 5753 5752 5752 5751 5751 5749 5747 5746 5746 5745 5745 5745
5820 5814 5809 5822 5827 5828 5820 5809 5824 5830 5825 5817 5816 5813 5808 5805 5803 5801 5798 5792 5789 5785 5780 5777 5776 5772 5767 5765 5763 5765 5765 5764 5763 5761 5758 5755 5754 5752 5751 5752 5752 5751 5750 5749 5748 5748 5747 5746 5746
5808 5805 5807 5813 5824 5824 5819 5813 5822 5829 5824 5817 5815 5812 5808 5804 5803 5802 5800 5795 5791 5787 5782 5777 5775 5772 5768 5765 5764 5764 5763 5762 5762 5761 5759 5756 5754 5753 5752 5752 5752 5750 5751 5751 5750 5750 5748 5746 5746
5801 5805 5804 5806 5817 5817 5813 5815 5821 5825 5823 5819 5816 5813 5809 5805 5804 5805 5801 5798 5793 5789 5784 5779 5775 5771 5768 5766 5763 5763 5762 5762 5761 5760 5759 5757 5755 5754 5753 5752 5751 5751 5752 5750 5750 5748 5746 5746 5746
5808 5804 5801 5806 5815 5811 5810 5812 5818 5822 5820 5817 5816 5814 5810 5808 5810 5807 5803 5799 5794 5789 5784 5780 5775 5772 5768 5766 5762 5761 5761 5761 5762 5761 5760 5757 5756 5755 5753 5754 5752 5751 5752 5751 5751 5749 5747 5746 5747
5799 5795 5797 5801 5809 5807 5806 5809 5819 5820 5818 5818 5816 5814 5812 5810 5808 5804 5801 5798 5794 5789 5785 5781 5776 5773 5770 5767 5765 5763 5762 5762 5763 5761 5760 5758 5757 5756 5756 5754 5753 5752 5751 5750 5749 5748 5747 5748 5748
5792 5793 5796 5794 5800 5806 5801 5800 5810 5816 5819 5819 5819 5818 5816 5812 5807 5803 5800 5797 5794 5789 5786 5784 5778 5775 5771 5768 5765 5762 5760 5760 5761 5760 5760 5759 5757 5756 5755 5755 5754 5753 5752 5751 5749 5749 5746 5746 5747
5783 5798 5796 5792 5788 5793 5795 5789 5805 5813 5812 5814 5817 5818 5817 5815 5811 5806 5801 5797 5794 5791 5788 5784 5779 5775 5771 5768 5766 5762 5759 5757 5760 5760 5761 5759 5757 5756 5755 5755 5754 5753 5753 5752 5751 5751 5749 5746 5745
5792 5797 5793 5792 5789 5788 5793 5788 5805 5812 5807 5813 5817 5818 5818 5816 5812 5806 5803 5799 5797 5794 5789 5784 5778 5774 5771 5769 5766 5762 5761 5761 5761 5760 5758 5757 5757 5756 5756 5755 5754 5752 5752 5752 5751 5750 5749 5748 5746
5791 5787 5785 5787 5788 5769 5787 5783 5792 5811 5811 5816 5819 5817 5816 5815 5811 5807 5804 5800 5797 5794 5789 5784 5778 5774 5771 5768 5766 5763 5761 5759 5758 5757 5757 5756 5756 5756 5756 5755 5753 5752 5752 5751 5750 5749 5748 5747 5747
5783 5774 5761 5759 5762 5770 5789 5781 5794 5815 5819 5818 5817 5816 5816 5814 5810 5804 5800 5796 5794 5791 5787 5784 5778 5773 5771 5768 5765 5763 5761 5759 5757 5757 5756 5755 5755 5755 5754 5754 5752 5752 5751 5751 5750 5748 5748 5747 5745
5779 5781 5766 5756 5761 5776 5776 5778 5802 5817 5818 5818 5818 5817 5814 5811 5808 5803 5799 5796 5792 5789 5786 5782 5777 5773 5770 5768 5765 5763 5761 5759 5759 5758 5757 5756 5755 5755 5753 5751 5751 5751 5750 5749 5748 5748 5747 5746 5744
5775 5779 5797 5782 5775 5771 5779 5787 5803 5813 5811 5812 5813 5812 5810 5808 5806 5802 5799 5795 5792 5788 5784 5780 5776 5772 5769 5767 5764 5762 5760 5759 5758 5757 5755 5755 5754 5753 5752 5751 5751 5750 5749 5748 5746 5746 5744 5744 5743
5789 5788 5778 5772 5755 5755 5768 5775 5790 5799 5803 5807 5807 5807 5807 5806 5804 5801 5797 5793 5790 5787 5783 5778 5774 5770 5768 5767 5765 5762 5760 5758 5756 5755 5753 5752 5751 5751 5751 5751 5750 5749 5747 5745 5744 5743 5743 5741 5740
5770 5774 5776 5776 5777 5761 5759 5777 5808 5806 5807 5806 5806 5806 5805 5804 5802 5798 5795 5791 5788 5785 5781 5776 5772 5769 5766 5764 5762 5760 5758 5756 5755 5753 5751 5749 5748 5748 5748 5748 5747 5746 5744 5743 5741 5740 5740 5738 5738
5781 5778 5775 5762 5760 5769 5772 5783 5810 5811 5811 5808 5805 5804 5803 5801 5799 5796 5792 5788 5784 5781 5778 5774 5771 5768 5765 5763 5760 5757 5755 5754 5752 5750 5748 5747 5746 5745 5744 5744 5744 5743 5741 5740 5738 5737 5736 5735 5734